Regional Weather Roundup
Issued by NWS Portland, ME

Current Version | Previous Version | Text Only | Print | Product List | Glossary Off
Versions: 1 2 3 4 5 6 7 8 9 10 11 12 13 14 15 16 17 18 19 20 21 22 23 24 25 26 27 28 29 30 31 32 33 34 35 36 37 38 39 40 41 42 43 44 45 46 47 48 49 50
000 ASUS41 KGYX 211310 RWRGYX WEATHER ROUNDUP FOR MAINE AND NEW HAMPSHIRE NATIONAL WEATHER SERVICE GRAY ME 900 AM EDT TUE MAY 21 2019 MEZ002-005-006-010-012-015-018-020-021-024-026-027-029-211400- MAINE CITY SKY/WX TMP DP RH WIND PRES REMARKS PORTLAND FAIR 59 39 47 NW21G30 29.68R SANFORD FAIR 57 36 45 W24G30 29.71S BAR HARBOR PTSUNNY 58 46 64 NW10G24 29.57F WISCASSET FAIR 59 40 49 W10G23 29.66R ROCKLAND PTSUNNY 58 44 60 W15G28 29.61R FRYEBURG FAIR 56 34 43 W15G26 29.72R LEWISTONAUBURN FAIR 54 40 59 NW22G29 29.68R AUGUSTA PTSUNNY 55 39 54 NW24G36 29.66R WATERVILLE FAIR 55 41 59 NW17G24 29.62R BANGOR PTSUNNY 57 44 62 W7 29.59F GREENVILLE N/A 45 38 76 NW14G24 29.59R MILLINOCKET CLOUDY 51 44 77 NW13G23 29.58F HOULTON LGT RAIN 51 48 89 W8 29.52S PRESQUE ISLE LGT RAIN 51 48 89 W13 29.51F FRENCHVILLE LGT RAIN 45 41 86 NW8 29.53S FOG CARIBOU LGT RAIN 47 44 90 NW10 29.51S $$ NHZ002-005-008-009-011-012-014-211400- NEW HAMPSHIRE CITY SKY/WX TMP DP RH WIND PRES REMARKS PORTSMOUTH MOSUNNY 59 39 48 W20G31 29.71S ROCHESTER FAIR 58 35 42 NW15G35 29.72R NASHUA FAIR 58 37 45 NW24 29.78R MANCHESTER PTSUNNY 58 39 49 NW16G23 29.76R CONCORD FAIR 56 37 49 NW23G35 29.77R LACONIA PTSUNNY 54 36 50 W12G25 29.75S PLYMOUTH PTSUNNY 52 35 52 W17G28 29.76S BERLIN LGT RAIN 45 38 76 NW10G22 29.73R WHITEFIELD CLOUDY 46 36 68 W13G23 29.77R HAZE JAFFREY FAIR 55 34 45 NW9G23 29.80R KEENE FAIR 55 35 47 NW18G29 29.81F LEBANON CLOUDY 53 35 50 NW9 29.79S MT WASHINGTON SNOWSHWR 23 23 100 W62G93 N/A VSB 1/16WCI 0 $$ VTZ005-007-008-211400- VERMONT CITY SKY/WX TMP DP RH WIND PRES REMARKS ST JOHNSBURY N/A 49 35 58 MISG 29.78R MONTPELIER LGT RAIN 44 37 76 NW7G20 29.85S BURLINGTON PTSUNNY 49 38 65 W13G21 29.86S $$ MAZ007-012-024-CTZ003-RIZ002-NYZ038-NYZ072-211400- SOUTHERN NEW ENGLAND AND NY CITY SKY/WX TMP DP RH WIND PRES REMARKS BOSTON FAIR 63 39 41 NW20G32 29.77R WORCESTER PTSUNNY 53 39 59 W16G26 29.80F NANTUCKET FAIR 60 44 55 NW23G31 29.78R PROVIDENCE FAIR 59 41 51 NW20G30 29.81S HARTFORD PTSUNNY 57 37 47 W22G31 29.86F ALBANY PTSUNNY 54 39 57 NW15G29 29.92F NEW YORK CITY FAIR 58 38 47 NW20G31 29.93S $$ ANZ081-ANZ082-ANZ150-NHZ014-MEZ023>029-211400- COASTAL MARINE OBSERVATIONS STATION/POSITION TIME TEMP WIND PRES WAVE AIR SEA DIR/SP/G HT/PER (UTC) (F) (DEG/KT/KT) (MB) (FT/S) ISLE OF SHOALS 1200 55 300/ 23/ 25 1005.3R JEFFREYS LEDGE 1238 48 N/A 3/ 4 CASHES LEDGE BUO 1250 53 47 1004.1R 4/ 6 GEORGES BANK BUO 1250 48 44 250/ 12/ 14 1006.4R 5/ 6 $$ .............KEY.............. WCI - WIND CHILL TC - TEMPERATURE IN CELSIUS VSB - VISIBILITY IN MILES HX - HEAT INDEX FAIR- INDICATES FEW OR NO CLOUDS BELOW 12,000 FT, WITH NO SIGNIFICANT WEATHER AND/OR OBSTRUCTIONS TO VISIBILITY.

USA.gov is the U.S. government's official web portal to all federal, state and local government web resources and services.